Home   Weather   Victoria   Past weeks

Flag for Canada Past Weather in Victoria, British Columbia, Canada — Yesterday and Last 2 Weeks

Now
55 °F

Light rain. Overcast.


Feels Like: 55 °F
Forecast: 53 / 62 °F
Wind: 3 mph from West

Location: Victoria Int. Airportb. C.

Current Time: Sep 24, 2016 at 10:40:31 PM

Latest Report: Sep 24, 2016 at 10:00 PM


Visibility: 30 mi

Pressure: 30.39 "Hg

Humidity: 94%

Dew Point: 54 °F

Location of VictoriaLocation

Past Weather in Victoria — Graph

°F

Victoria Temperature Yesterday

Maximum temperature yesterday: 57 °F (at 2:00 PM)
Minimum temperature yesterday: 52 °F (at 5:00 AM)
Average temperature yesterday: 55 °F

High & Low Weather Summary for the Past Weeks

 TemperatureHumidityPressure
High73 °F (Sep 12, 2:00 PM)100% (Sep 16, 7:00 AM)30.39 "Hg (Sep 16, 7:00 AM)
Low46 °F (Sep 13, 5:00 AM)25% (Sep 12, 4:00 PM)29.79 "Hg (Sep 17, 10:00 AM)
Average58 °F76%30.07 "Hg
* Reported Sep 9 9:00 PM — Sep 24 9:00 PM, Victoria, Weather by CustomWeather, © 2016

Note: Actual official high and low records may vary slightly from our data, if they occured in-between our weather recording intervals... More about our weather records

Advertising

Victoria Weather History for the Previous 24 Hours

Scroll right to see more
 ConditionsComfort  
Time TempWeatherWind HumidityBarometerVisibility
9:00 PM
Sat, Sep 24
55 °FMostly cloudy.2 mph94%30.38 "Hg30 mi
8:00 PM55 °FPassing clouds.6 mph94%30.36 "Hg30 mi
7:00 PM57 °FLight rain. Mostly cloudy.No wind82%30.34 "Hg30 mi
6:00 PM57 °FMostly cloudy.3 mph82%30.34 "Hg30 mi
5:00 PM59 °FPartly sunny.5 mph77%30.35 "Hg30 mi
4:00 PM61 °FPartly sunny.6 mph72%30.34 "Hg30 mi
3:00 PM59 °FBroken clouds.9 mph77%30.35 "Hg30 mi
2:00 PM59 °FBroken clouds.9 mph77%30.36 "Hg30 mi
1:00 PM59 °FPartly sunny.6 mph77%30.39 "Hg30 mi
12:00 PM55 °FBroken clouds.6 mph88%30.39 "Hg30 mi
11:00 AM55 °FBroken clouds.2 mph94%30.39 "Hg20 mi
10:00 AM54 °FCloudy.2 mph94%30.38 "Hg20 mi
9:46 AM54 °FPartly sunny.3 mph94%30.36 "Hg20 mi
9:00 AM54 °FCloudy.3 mph94%30.35 "Hg15 mi
8:00 AM52 °FBroken clouds.3 mph94%30.34 "Hg30 mi
7:00 AM52 °FPassing clouds.2 mph94%30.32 "Hg20 mi
6:00 AM50 °FPassing clouds.6 mph100%30.30 "Hg20 mi
5:00 AM52 °FPassing clouds.3 mph94%30.28 "Hg20 mi
4:00 AM52 °FPassing clouds.3 mph100%30.27 "Hg15 mi
3:00 AM50 °FFog.5 mph100%30.25 "Hg15 mi
2:00 AM50 °FPartly cloudy.5 mph100%30.24 "Hg7 mi
1:00 AM48 °FFog.3 mph94%30.22 "Hg15 mi
12:00 AM52 °FPassing clouds.3 mph94%30.20 "Hg20 mi
11:00 PM
Fri, Sep 23
55 °FPartly cloudy.5 mph94%30.18 "Hg20 mi
10:00 PM55 °FPartly cloudy.6 mph94%30.16 "Hg20 mi
Weather by CustomWeather, © 2016

See weather overviewHow to use our weather pages